Istanbul/Atatürk Airport

Airport
ICAO code: 
LTBA
IATA Code: 
IST
Summary
ICAO Region: 
EUR
Territory: 
Location: 
Yeşilköy, Istanbul
Serving: 
Istanbul
Elevation: 
163 ft
Coordinates: 
Aerial View: 
40° 58' 28.632" N, 28° 48' 35.316" E
Metar
Observation
LTBA 200650Z 20017KT CAVOK 03/M03 Q1026 NOSIG
Station
Istanbul / Ataturk
Date/Time
2022-01-20 06:50:00
Wind direction
200°
Wind speed
17 kts
Lowest cloud amount
clouds and visibility OK
Temperature
3°C
Dew point
-3°C
Humidity
64%
QNH
1026 hPa
Weather condition
n/a

Airport serving city of Istanbul. Until April 2019, it was the main international airport serving Istanbul.

Climatology

Dry-summer subtropical ”Mediterranean" climate (Köppen climate classification Csa)

Runways

Designator Length Width Surface Rops
5/23 2600 60 ASP Yes/Yes
17L/35R 3000 45 CON Yes/Yes
17R/35L 3000 45 CON Yes/Yes
Airport map: 
Aerial View: 

SKYbrary Partners:

Safety knowledge contributed by: